Location: Flotzheim
(48.8375°N, 10.8136°E)
Time: 16:59:43
(UTC+00:00)

NOSS 3-1 (C) - Pass Details

Date: 23 January 2021
Orbit: 723 x 1485 km, 63.3° (Epoch: 22 February)

Event Time Altitude Azimuth Distance (km) Brightness Sun altitude
Rises 17:06:59 0° 317° (NW) 3,821 7.0 -10.9°
Reaches altitude 10° 17:09:30 10° 321° (NW) 2,969 6.3 -11.3°
Maximum altitude 17:16:39 60° 41° (NE) 1,419 4.1 -12.5°
Drops below altitude 10° 17:25:04 10° 121° (ESE) 3,480 6.0 -13.8°
Enters shadow 17:28:06 - 124° (SE) 4,474 6.5 -14.3°
